Overview Statistics Trail Chart Weather Telemetry Raw packets
 

This is the latest recevied weather packets stored in our database for station/object HI3RRR-13. If no packets are shown the sender has not sent any weather packets the latest 10 day(s).

<< 12 13 14 15 16 17 18 >>
Time Temp. Humidity Pressure Rain* Wind** Luminosity Snow
1788450458 30.56° C 70% 1015 hPa 0 mm - - -
1788449857 30.56° C 72% 1016 hPa 0 mm - - -
1788449256 30.56° C 72% 1016 hPa 0 mm - - -
1788448672 30.56° C 70% 1016 hPa 0 mm - - -
1788448055 30.56° C 71% 1016 hPa 0 mm - - -
1788447454 31.11° C 74% 1016 hPa 0 mm - - -
1788446854 30° C 72% 1016 hPa 0 mm - - -
1788446253 30° C 72% 1016 hPa 0 mm - - -
1788445653 29.44° C 75% 1016 hPa 0 mm - - -
1788445052 29.44° C 76% 1016 hPa 0 mm - - -
1788444451 29.44° C 77% 1016 hPa 0 mm - - -
1788443851 28.33° C 80% 1016 hPa 0 mm - - -
1788443250 28.89° C 82% 1016 hPa 0 mm - - -
1788442650 26.67° C 85% 1016 hPa 0 mm - - -
1788442049 26.67° C 85% 1016 hPa 0 mm - - -
1788441449 27.22° C 84% 1016 hPa 0 mm - - -
1788440848 25° C 90% 1016 hPa 0 mm - - -
1788440247 25.56° C 89% 1016 hPa 0 mm - - -
1788439647 25.56° C 90% 1016 hPa 0 mm - - -
1788439046 23.89° C 90% 1016 hPa 0 mm - - -
1788438445 22.22° C 91% 1016 hPa 0 mm - - -
1788437845 22.78° C 91% 1016 hPa 0 mm - - -
1788437244 22.78° C 91% 1016 hPa 0 mm - - -
1788436644 23.33° C 90% 1016 hPa 0 mm - - -
1788436043 23.33° C 90% 1016 hPa 0 mm - - -

* Rain latest hour (hover to see other rain measurements)
** Current wind speed in m/s (hover to see current wind gust speed)